Location: Lake Arresoe
(56.0000°N, 12.5000°E)
Time: 15:04:13
(UTC+02:00)

Resurs 1-4 Rocket - Pass Details

Date: 26 July 2021
Orbit: 799 x 814 km, 98.6° (Epoch: 27 September)

Event Time Altitude Azimuth Distance (km) Brightness Sun altitude
Rises 03:22:28 0° 15° (NNE) 3,353 7.1 -10.0°
Reaches altitude 10° 03:24:49 10° 14° (NNE) 2,416 6.0 -9.9°
Maximum altitude 03:30:09 73° 291° (WNW) 853 2.2 -9.5°
Enters shadow 03:35:10 11° 208° (SSW) 2,292 3.8 -9.1°
